[[{"header":{"parameterUnit":"m.s-1","parameterCategory":1,"la1":30.2991,"la2":30.254,"lo1":-89.0895,"lo2":-89.0444,"dy":0.0017,"dx":0.0017,"nx":28,"ny":28,"refTime":"2023-10-27T03:00:00:Z","depth":0,"parameterNumber":2,"parameterNumberName":"U-component_of_WINDS"},"data":[0,0,0,0,0,0,0,0,0,0,0,0,0,0,0,0,0,0,0,0,0,0,0,0,0,0,0,0,0,0,0,0,0,0,0,0,0,0,0,0,0,0,0,0,0,0,0,0,0,0,0,0,0,0,0,0,0,0,-4.0183,-4.0183,0,-4.0241,-4.0242,-4.0243,-4.0123,-4.0119,-4.0115,-4.0111,-4.0174,-4.0179,-4.0184,0,0,0,0,0,0,0,0,0,0,0,0,0,-3.9971,-3.9975,-4.0183,-4.0183,-4.0184,-4.0241,-4.0242,-4.0243,-4.0123,-4.0119,-4.0114,-4.0109,-4.0172,-4.0178,-4.0185,0,0,0,0,0,0,0,0,0,0,0,0,0,-4.005,-3.9977,-4.0182,-4.0131,-4.0127,-4.0241,-4.0242,-4.0243,-4.0124,-4.0119,-4.0113,-4.0107,-4.017,-4.0178,-4.0186,-4.0353,0,0,-4.021,-4.0213,0,0,0,0,0,0,0,0,-4.0045,-4.0058,-4.0138,-4.0135,-4.0131,-4.0169,-4.019,-4.028,-4.0126,-4.0126,-4.0111,-4.0104,-4.0177,-4.0184,-4.0208,-4.0356,-4.0358,-4.0211,-4.0216,-4.0219,-4.0221,0,0,0,0,0,0,0,-4.004,-4.0054,-4.0206,-4.0139,-4.0135,-4.0107,-4.0111,-4.0207,-4.0184,-4.0125,-4.0117,-4.0125,-4.0174,-4.0201,-4.0209,-4.0359,-4.0211,-4.0218,-4.0223,-4.0226,-4.065,-4.0656,0,0,0,0,0,0,-4.0041,-4.0051,-4.0204,-4.0208,-4.0073,-4.0115,-4.0121,-4.0163,-4.0182,-4.018,-4.013,-4.0119,-4.019,-4.02,-4.021,-4.0409,-4.0219,-4.0226,-4.0231,-4.0644,-4.0651,-4.0658,0,0,0,0,0,0,-4.0037,-4.0055,-4.0202,-4.0127,-4.0143,-4.0125,-4.0173,-4.0167,-4.0193,-4.0186,-4.0182,-4.0161,-4.0186,-4.0199,-4.0319,-4.0409,-4.023,-4.0237,-4.0636,-4.0646,-4.0655,-4.0807,0,0,0,0,0,0,-4.0031,-4.0055,-4.0117,-4.0129,-4.0148,-4.0308,-4.0179,-4.0172,-4.0207,-4.0194,-4.0214,-4.0212,-4.0182,-4.0308,-4.0327,-4.0417,-4.0244,-4.0628,-4.064,-4.0652,-4.0794,-4.082,-4.0844,0,0,0,0,0,-4.0024,-4.0157,-4.012,-4.014,-4.0225,-4.0313,-4.0324,-4.0286,-4.0215,-4.0278,-4.0274,-4.0211,-4.0397,-4.0321,-4.0341,-4.0436,-4.0622,-4.0637,-4.0651,-4.0782,-4.0815,-4.0843,0,0,0,0,0,0,-4.0156,-4.0158,-4.0117,-4.0258,-4.0287,-4.0293,-4.0371,-4.0322,-4.0372,-4.0357,-4.0309,-4.0315,-4.0445,-4.0452,-4.0367,-4.06,-4.0497,-4.0517,-4.059,-4.0621,-4.0646,-4.0641,-4.025,0,0,0,0,0,-4.0201,-4.0272,-4.027,-4.0395,-4.0411,-4.039,-4.0426,-4.0395,-4.0423,-4.0435,-4.0439,-4.0469,-4.0534,-4.0578,-4.0637,-4.0794,-4.0798,-4.087,-4.0895,-4.0915,-4.0933,-4.1019,-4.1051,-4.0706,-4.0706,-4.0706,0,0,-4.0296,-4.0306,-4.0353,-4.0422,-4.044,-4.0516,-4.04,-4.0485,-4.0541,-4.0447,-4.0561,-4.0566,-4.0597,-4.0736,-4.0798,-4.0746,-4.1029,-4.0934,-4.095,-4.0956,-4.1037,-4.107,-4.1099,-4.0716,-4.0714,-4.0713,0,0,-4.0507,-4.0521,-4.0627,-4.0649,-4.0678,-4.0663,-4.0689,-4.0704,-4.0704,-4.0817,-4.0749,-4.0816,-4.0929,-4.0954,-4.0982,-4.1207,-4.1152,-4.1228,-4.1358,-4.1443,-4.147,-4.1494,-4.1576,-4.1606,-4.1245,-4.1246,-4.1246,0,-4.0621,-4.0731,-4.0688,-4.0779,-4.0812,-4.0731,-4.084,-4.0863,-4.0911,-4.0936,-4.0878,-4.1019,-4.1034,-4.118,-4.1235,-4.126,-4.129,-4.1225,-4.1469,-4.1493,-4.1515,-4.1592,-4.1623,-4.1255,-4.1254,-4.1253,-4.1252,0,-4.0871,-4.0949,-4.1032,-4.1081,-4.1123,-4.1222,-4.1196,-4.1245,-4.1211,-4.1203,-4.1321,-4.1336,-4.1398,-4.1431,-4.1398,-4.1573,-4.1541,-4.1477,-4.1373,-4.1557,-4.163,-4.1659,-4.1268,-4.1264,-4.1262,-4.1259,0,0,-4.1165,-4.1191,-4.1222,-4.1244,-4.1272,-4.1332,-4.1429,-4.149,-4.1534,-4.157,-4.1652,-4.175,-4.1692,-4.1724,-4.1694,-4.1769,-4.1949,-4.1696,-4.1696,-4.1743,-4.2145,-4.2193,-4.2228,-4.1913,-4.1918,-4.1922,-4.2143,0,-4.1376,-4.1541,-4.1507,-4.1669,-4.1742,-4.1669,-4.1753,-4.1781,-4.1777,-4.184,-4.1835,-4.1907,-4.1824,-4.1843,-4.1913,-4.1912,-4.2029,-4.1895,-4.1989,-4.1993,-4.1984,-4.2266,-4.2316,-4.2524,-4.2171,-4.2175,-4.2179,0,-4.1642,-4.169,-4.186,-4.1879,-4.1909,-4.1985,-4.204,-4.21,-4.2131,-4.2123,-4.2161,-4.2117,-4.2215,-4.2111,-4.2247,-4.2157,-4.2194,-4.22,-4.2207,-4.2214,-4.2097,-4.2282,-4.2589,-4.262,-4.2223,-4.2219,-4.2216,0,-4.1842,-4.1948,-4.2064,-4.2085,-4.211,-4.2166,-4.2179,-4.2204,-4.2244,-4.2293,-4.2318,-4.2378,-4.2411,-4.2459,-4.2434,-4.2359,-4.2576,-4.2468,-4.2573,-4.2574,-4.2622,-4.2619,-4.294,-4.2645,-4.2644,-4.2644,-4.2643,0,-4.208,-4.2188,-4.2154,-4.2226,-4.2345,-4.2306,-4.2426,-4.243,-4.2454,-4.2527,-4.2467,-4.2537,-4.2499,-4.2567,-4.2548,-4.2665,-4.268,-4.2678,-4.2671,-4.2683,-4.2684,-4.2707,-4.2692,-4.2652,-4.265,-4.2649,-4.2647,0,-4.2323,-4.2304,-4.2426,-4.2441,-4.2447,-4.2535,-4.2547,-4.2615,-4.2608,-4.2701,-4.272,-4.2709,-4.2786,-4.2766,-4.2849,-4.2837,-4.2985,-4.296,-4.2975,-4.2969,-4.3076,-4.3067,-4.3423,-4.3469,-4.3144,-4.3147,-4.3149,0,-4.2476,-4.2557,-4.2581,-4.2625,-4.2643,-4.2715,-4.2755,-4.2721,-4.2766,-4.281,-4.2873,-4.2945,-4.3,-4.3127,-4.3127,-4.3192,-4.3169,-4.3289,-4.3178,-4.3188,-4.3172,-4.3168,-4.3177,-4.3311,-4.3315,-4.3318,-4.3321,0,-4.2752,-4.2739,-4.2799,-4.2859,-4.2909,-4.2954,-4.2993,-4.3033,-4.3002,-4.3056,-4.3134,-4.3177,-4.3263,-4.3336,-4.3396,-4.3411,-4.3363,-4.3356,-4.3384,-4.3397,-4.3403,-4.3403,-4.3036,-4.3348,-4.3345,-4.3343,-4.3342,-4.334,-4.2955,-4.3025,-4.3053,-4.3123,-4.3149,-4.3188,-4.3253,-4.3255,-4.3319,-4.3386,-4.3362,-4.3452,-4.3484,-4.356,-4.3583,-4.3654,-4.3608,-4.3648,-4.3659,-4.3669,-4.3684,-4.3391,-4.3664,-4.3664,-4.3663,-4.3662,-4.3662,0,-4.3228,-4.3243,-4.3308,-4.3366,-4.3422,-4.3371,-4.3412,-4.3463,-4.3543,-4.3576,-4.3633,-4.3724,-4.3795,-4.3802,-4.387,-4.3926,-4.3905,-4.3945,-4.3941,-4.3945,-4.3719,-4.3689,-4.396,-4.396,-4.396,-4.396,-4.396,-4.396,-4.3377,-4.3493,-4.3485,-4.3614,-4.3629,-4.3716,-4.3745,-4.3781,-4.3808,-4.3912,-4.3971,-4.3975,-4.3999,-4.4068,-4.4132,-4.4133,-4.4161,-4.421,-4.4202,-4.3991,-4.3961,-4.3933,-4.3904,-4.4216,-4.4216,-4.4422,-4.4424,-4.4425]},{"header":{"parameterUnit":"m.s-1","parameterCategory":1,"la1":30.2991,"la2":30.254,"lo1":-89.0895,"lo2":-89.0444,"dy":0.0017,"dx":0.0017,"nx":28,"ny":28,"refTime":"2023-10-27T03:00:00:Z","depth":0,"parameterNumber":3,"parameterNumberName":"V-component_of_WINDS"},"data":[0,0,0,0,0,0,0,0,0,0,0,0,0,0,0,0,0,0,0,0,0,0,0,0,0,0,0,0,0,0,0,0,0,0,0,0,0,0,0,0,0,0,0,0,0,0,0,0,0,0,0,0,0,0,0,0,0,0,0.3892,0.3893,0,0.3937,0.3938,0.3938,0.4003,0.4004,0.4005,0.4006,0.405,0.405,0.405,0,0,0,0,0,0,0,0,0,0,0,0,0,0.386,0.386,0.3892,0.3893,0.3893,0.3937,0.3938,0.3939,0.4003,0.4004,0.4006,0.4007,0.405,0.405,0.405,0,0,0,0,0,0,0,0,0,0,0,0,0,0.3886,0.386,0.3892,0.3931,0.3935,0.3937,0.3938,0.3939,0.4003,0.4004,0.4006,0.4008,0.405,0.405,0.405,0.4017,0,0,0.4051,0.4051,0,0,0,0,0,0,0,0,0.3885,0.3887,0.3924,0.3928,0.3932,0.3966,0.3943,0.3965,0.4002,0.3977,0.4006,0.4008,0.4021,0.4023,0.4028,0.4019,0.4021,0.4051,0.4051,0.4051,0.4051,0,0,0,0,0,0,0,0.3883,0.3886,0.391,0.3925,0.393,0.3945,0.3951,0.3947,0.3988,0.3979,0.3984,0.3989,0.4023,0.4028,0.4029,0.4022,0.4051,0.4051,0.4051,0.4051,0.3991,0.3989,0,0,0,0,0,0,0.3875,0.3884,0.3908,0.3911,0.3912,0.3945,0.3951,0.3954,0.3989,0.3996,0.3987,0.3991,0.4027,0.4029,0.4031,0.3996,0.4051,0.4051,0.4051,0.3992,0.399,0.3988,0,0,0,0,0,0,0.3874,0.3877,0.3907,0.3899,0.3904,0.3943,0.3946,0.3954,0.3958,0.3995,0.4002,0.3984,0.4028,0.4031,0.4021,0.3998,0.4051,0.4051,0.3994,0.3992,0.3989,0.3925,0,0,0,0,0,0,0.3873,0.3876,0.3864,0.3898,0.3904,0.3896,0.3945,0.3953,0.3959,0.3965,0.3994,0.4001,0.4029,0.402,0.4021,0.4,0.4051,0.3997,0.3993,0.399,0.3929,0.392,0.3913,0,0,0,0,0,0.3872,0.3843,0.3863,0.3866,0.389,0.3894,0.3898,0.3932,0.3957,0.3945,0.3969,0.4,0.4001,0.4019,0.402,0.3998,0.3998,0.3994,0.399,0.3933,0.3922,0.3913,0,0,0,0,0,0,0.3804,0.3848,0.3871,0.3853,0.3869,0.3905,0.3891,0.392,0.3929,0.3934,0.3976,0.3982,0.3967,0.3982,0.4001,0.3969,0.4004,0.4001,0.396,0.395,0.3942,0.3938,0.4051,0,0,0,0,0,0.3787,0.3788,0.3826,0.3806,0.3814,0.3851,0.3854,0.388,0.3898,0.3905,0.3928,0.3944,0.3949,0.395,0.3956,0.3932,0.394,0.3918,0.391,0.3903,0.3899,0.3888,0.3879,0.3976,0.3976,0.3976,0,0,0.3752,0.3776,0.3774,0.3793,0.3809,0.3808,0.3856,0.3853,0.3853,0.3904,0.3897,0.3914,0.3935,0.3918,0.3912,0.393,0.3874,0.3898,0.3892,0.3892,0.3883,0.3874,0.3866,0.3973,0.3974,0.3974,0,0,0.3687,0.3706,0.3692,0.3707,0.3732,0.3757,0.3754,0.3786,0.38,0.3793,0.3833,0.3833,0.3839,0.3853,0.386,0.3803,0.3832,0.3804,0.3761,0.375,0.3742,0.3736,0.3716,0.3708,0.38,0.38,0.38,0,0.364,0.3641,0.3681,0.3676,0.3683,0.3732,0.3718,0.3731,0.3755,0.3759,0.378,0.379,0.3808,0.3795,0.3781,0.3786,0.3784,0.38,0.3741,0.3734,0.3729,0.371,0.3702,0.3796,0.3797,0.3797,0.3798,0,0.3582,0.3582,0.3568,0.3592,0.3598,0.3588,0.3626,0.3628,0.3654,0.3677,0.367,0.3693,0.3705,0.3704,0.3728,0.3695,0.3706,0.3733,0.3769,0.3715,0.3698,0.3691,0.3791,0.3793,0.3794,0.3795,0,0,0.3473,0.3521,0.3515,0.3528,0.3559,0.356,0.3553,0.3566,0.3566,0.3582,0.3577,0.3583,0.3609,0.3617,0.3644,0.3634,0.3588,0.3663,0.3664,0.3648,0.3554,0.3533,0.3524,0.3608,0.3607,0.3606,0.3552,0,0.3414,0.3406,0.3442,0.3424,0.3425,0.3473,0.3467,0.3485,0.3507,0.3511,0.3535,0.3538,0.3572,0.3578,0.3571,0.3595,0.357,0.36,0.3604,0.3603,0.3596,0.3515,0.3492,0.344,0.3546,0.3545,0.3544,0,0.3343,0.3357,0.3339,0.3374,0.3375,0.3369,0.3385,0.3388,0.3411,0.3428,0.3439,0.347,0.3466,0.3501,0.3495,0.3515,0.3519,0.3532,0.3531,0.3531,0.3569,0.3513,0.3424,0.3416,0.3534,0.3534,0.3535,0,0.3266,0.328,0.3272,0.3281,0.332,0.3315,0.3331,0.3355,0.3362,0.3375,0.338,0.3392,0.3399,0.3408,0.3442,0.3465,0.3433,0.3471,0.3446,0.3445,0.3436,0.3436,0.3346,0.344,0.344,0.344,0.344,0,0.3196,0.3183,0.3238,0.3232,0.322,0.3262,0.3249,0.3269,0.3291,0.329,0.3332,0.333,0.3376,0.338,0.3407,0.3398,0.3401,0.3414,0.3421,0.341,0.3408,0.3412,0.3416,0.3438,0.3438,0.3439,0.3439,0,0.3106,0.3143,0.3137,0.3176,0.3185,0.3174,0.3207,0.3204,0.323,0.3228,0.323,0.327,0.3277,0.3313,0.3327,0.3345,0.3327,0.3341,0.3319,0.3324,0.3297,0.3299,0.3206,0.3196,0.3296,0.3295,0.3295,0,0.3059,0.305,0.3089,0.3092,0.3107,0.3111,0.3119,0.3161,0.3166,0.3192,0.3186,0.3196,0.3206,0.3215,0.3244,0.3256,0.3271,0.3238,0.3273,0.3262,0.327,0.327,0.3269,0.3229,0.3228,0.3227,0.3226,0,0.297,0.2989,0.2998,0.3014,0.3022,0.3036,0.3052,0.3052,0.3099,0.3103,0.3112,0.312,0.3136,0.3145,0.3162,0.3179,0.321,0.3215,0.321,0.3198,0.3185,0.3192,0.3298,0.3217,0.3218,0.3218,0.3219,0.3219,0.29,0.2895,0.2922,0.2931,0.2949,0.2964,0.2963,0.299,0.2997,0.3014,0.3039,0.3043,0.3068,0.3094,0.3108,0.3112,0.313,0.3123,0.3121,0.3118,0.3112,0.3186,0.3116,0.3116,0.3116,0.3116,0.3117,0,0.2813,0.2834,0.2842,0.2865,0.2872,0.2903,0.2924,0.2927,0.2931,0.2952,0.2962,0.2972,0.2982,0.3013,0.3027,0.3024,0.3039,0.3026,0.3026,0.3029,0.3096,0.3099,0.3014,0.3014,0.3014,0.3014,0.3014,0.3014,0.2769,0.2763,0.2785,0.2788,0.2809,0.2815,0.2824,0.2838,0.2855,0.2864,0.2873,0.2895,0.292,0.2936,0.2947,0.2956,0.2958,0.2941,0.2954,0.3015,0.3025,0.3034,0.3037,0.2941,0.2941,0.2888,0.2887,0.2887]}]]